Track STARLINK-2647 now! 10-day predictions STARLINK-2647 is classified as:
1 48658U 21044W 22224.02039204 -.00001516 00000-0 -82891-4 0 9991 2 48658 53.0546 223.0062 0001538 65.0149 295.0999 15.06388813 67811